Location: Csohesd
(46.2500°N, 22.6167°E)
Time: 06:13:12
(UTC+00:00)

Cosmos 1455 Rocket - Pass Details

Date: 21 October 2021
Orbit: 604 x 630 km, 82.5° (Epoch: 04 December)

Event Time Altitude Azimuth Distance (km) Brightness Sun altitude
Rises 16:15:40 0° 174° (S) 2,885 6.5 -8.1°
Reaches altitude 10° 16:17:55 10° 169° (S) 1,988 5.6 -8.5°
Maximum altitude 16:22:11 51° 94° (E) 789 3.2 -9.3°
Drops below altitude 10° 16:26:31 10° 19° (NNE) 2,016 5.5 -10.0°
Sets 16:28:49 0° 14° (NNE) 2,931 6.3 -10.4°
